Location: Poughquag
(41.6090°N, 73.6820°W)
Time: 10:47:19
(UTC-05:00)

Vanguard 1 - Pass Details

Date: 02 December 2023
Orbit: 653 x 3826 km, 34.3° (Epoch: 25 February)

Event Time Altitude Azimuth Distance (km) Brightness Sun altitude
Rises 19:49:53 0° 254° (WSW) 6,382 15.1 -37.6°
Reaches altitude 10° 19:53:30 10° 252° (WSW) 5,699 14.6 -38.3°
Maximum altitude 20:12:52 70° 174° (S) 3,883 12.7 -41.9°
Enters shadow 20:17:03 63° 131° (SE) 4,081 12.7 -42.7°
Drops below altitude 10° 20:35:54 10° 97° (E) 6,593 - -46.1°
Sets 20:40:30 0° 95° (E) 7,375 - -47.0°
